Home > Weather > Londonderry > Past weeks

Flag for United Kingdom Past Weather in Londonderry, Northern Ireland, United Kingdom — Yesterday and Last 2 Weeks

Now
54 °F

Cool.


Feels Like: 54 °F
Forecast: 47 / 59 °F
Wind: 1 mph from West

Location: Castlederg

Current Time: Jul 27, 2016 at 6:49:35 AM

Latest Report: Jul 27, 2016 at 6:00 AM


Visibility: 28 mi

Pressure: 29.99 "Hg

Humidity: 93%

Dew Point: 52 °F

Location of LondonderryLocation

Past Weather in Londonderry — Graph

°F

Londonderry Temperature Yesterday

Maximum temperature yesterday: 61 °F (at 2:00 PM)
Minimum temperature yesterday: 51 °F (at 2:00 AM)
Average temperature yesterday: 57 °F

High & Low Weather Summary for the Past Weeks

 TemperatureHumidityPressure
High81 °F (Jul 19, 4:00 PM)98% (Jul 14, 3:00 AM)30.29 "Hg (Jul 14, 3:00 AM)
Low48 °F (Jul 14, 1:00 AM)54% (Jul 18, 6:00 PM)29.73 "Hg (Jul 20, 12:00 AM)
Average60 °F84%30.02 "Hg
* Reported Jul 12 5:00 AM — Jul 27 5:00 AM, Londonderry, Weather by CustomWeather, © 2016

Note: Actual official high and low records may vary slightly from our data, if they occured in-between our weather recording intervals... More about our weather records

Advertising

Londonderry Weather History for the Previous 24 Hours

Scroll right to see more
 ConditionsComfort  
Time TempWeatherWind HumidityBarometerVisibility
5:00 AM
Wed, Jul 27
54 °FCool.3 mph94%29.98 "Hg28 mi
4:00 AM54 °FCool.2 mph93%29.97 "Hg7 mi
3:00 AM55 °FCool.3 mph96%29.96 "Hg31 mi
2:00 AM55 °FCool.5 mph96%29.93 "Hg19 mi
1:00 AM56 °FRain. Overcast.3 mph95%29.93 "Hg1 mi
12:00 AM56 °FCool.5 mph94%29.92 "Hg31 mi
11:00 PM
Tue, Jul 26
57 °FCool.5 mph94%29.90 "Hg31 mi
10:00 PM58 °FCool.3 mph95%29.90 "Hg22 mi
9:00 PM59 °FLight rain. Cloudy.1 mph94%29.90 "Hg9 mi
8:00 PM59 °FRain. Cloudy.No wind95%29.90 "Hg5 mi
7:00 PM59 °FRain. Cloudy.1 mph94%29.92 "Hg2 mi
6:00 PM60 °FRain. Cloudy.1 mph93%29.93 "Hg3 mi
5:00 PM59 °FLight rain. Cloudy.5 mph93%29.95 "Hg17 mi
4:00 PM61 °FRain. Cloudy.8 mph86%29.97 "Hg10 mi
3:00 PM61 °FRain showers. Cloudy.9 mph83%29.99 "Hg28 mi
2:00 PM61 °FRain showers. Cloudy.9 mph82%30.00 "Hg31 mi
1:00 PM61 °FRain showers. Cloudy.10 mph80%30.01 "Hg22 mi
12:00 PM60 °FCool.8 mph79%30.03 "Hg28 mi
11:00 AM60 °FCool.8 mph81%30.04 "Hg25 mi
10:00 AM58 °FCool.3 mph85%30.05 "Hg31 mi
9:00 AM57 °FCool.6 mph91%30.06 "Hg11 mi
8:00 AM55 °FCool.3 mph95%30.06 "Hg31 mi
7:00 AM53 °FCool.1 mph96%30.07 "Hg31 mi
6:00 AM53 °FRain showers. Cloudy.7 mph96%30.06 "Hg4 mi
Weather by CustomWeather, © 2016

See weather overviewHow to use our weather pages